This is the latest recevied weather packets stored in our database for station/object KN6KDD. If no packets are shown the sender has not sent any weather packets the latest 10 day(s).
| Time | Temp. | Humidity | Pressure | Rain* | Wind** | Luminosity | Snow |
|---|---|---|---|---|---|---|---|
| 1777338289 | 15.56° C | 60% | 1356.9 hPa | 0 mm | - | 114 W/m² | - |
| 1777337984 | 16.11° C | 61% | 1356.9 hPa | 0 mm | - | 141 W/m² | - |
| 1777337682 | 16.67° C | 61% | 1356.6 hPa | 0 mm | - | 276 W/m² | - |
| 1777337379 | 16.11° C | 63% | 1356.6 hPa | 0 mm | - | 304 W/m² | - |
| 1777337076 | 15.56° C | 62% | 1356.8 hPa | 0 mm | - | 170 W/m² | - |
| 1777336774 | 16.67° C | 64% | 1356.9 hPa | 0 mm | - | 327 W/m² | - |
| 1777336473 | 16.67° C | 62% | 1356.6 hPa | 0 mm | - | 217 W/m² | - |
| 1777336170 | 16.11° C | 64% | 1356.8 hPa | 0 mm | - | 180 W/m² | - |
| 1777335867 | 16.67° C | 61% | 1356.8 hPa | 0 mm | - | 263 W/m² | - |
| 1777335564 | 17.22° C | 62% | 1356.6 hPa | 0 mm | - | 375 W/m² | - |
| 1777335261 | 17.22° C | 60% | 1356.4 hPa | 0 mm | - | 416 W/m² | - |
| 1777334959 | 17.22° C | 64% | 1356.5 hPa | 0 mm | - | 384 W/m² | - |
| 1777334656 | 17.78° C | 60% | 1356.4 hPa | 0 mm | - | 409 W/m² | - |
| 1777334353 | 17.22° C | 60% | 1356.1 hPa | 0 mm | - | 462 W/m² | - |
| 1777334049 | 16.67° C | 62% | 1356.5 hPa | 0 mm | - | 474 W/m² | - |
| 1777333744 | 17.22° C | 61% | 1356.2 hPa | 0 mm | - | 162 W/m² | - |
| 1777333441 | 17.22° C | 61% | 1356.2 hPa | 0 mm | - | 162 W/m² | - |
| 1777333139 | 17.78° C | 61% | 1356.4 hPa | 0 mm | - | 243 W/m² | - |
| 1777332836 | 17.78° C | 61% | 1356.2 hPa | 0 mm | - | 578 W/m² | - |
| 1777332533 | 17.78° C | 61% | 1356 hPa | 0 mm | - | 593 W/m² | - |
| 1777332230 | 17.22° C | 61% | 1356.2 hPa | 0 mm | - | 617 W/m² | - |
| 1777331927 | 17.78° C | 60% | 1356.1 hPa | 0 mm | - | 637 W/m² | - |
| 1777331624 | 17.78° C | 61% | 1356.1 hPa | 0 mm | - | 638 W/m² | - |
| 1777331321 | 17.78° C | 61% | 1356.1 hPa | 0 mm | - | 656 W/m² | - |
| 1777331019 | 17.78° C | 62% | 1356.1 hPa | 0 mm | - | 688 W/m² | - |
* Rain latest hour (hover to see other rain measurements)
** Current wind speed in m/s (hover to see current wind gust speed)